FW8496 Weather Reports


Display with metric or nautical units.
time (UTC)temp
F
wind
direction
speed
MPH
gust
MPH
rain 1hr
in
rain 24hr
in
rain mn
in
humidity
%
barometer
mb
20260902093542 62 106 2.0 4.0 0.00 0.09 0.00 71 1024.7
20260902093108 62 106 2.0 4.0 0.00 0.09 0.00 72 1024.6
20260902092544 62 106 2.0 4.0 0.00 0.09 0.00 72 1024.7
20260902092042 62 106 3.0 4.0 0.00 0.09 0.00 72 1024.7
20260902091615 62 106 1.0 3.0 0.00 0.09 0.00 71 1024.8
20260902091041 62 106 1.0 3.0 0.00 0.09 0.00 72 1024.7
20260902090545 62 106 2.0 3.0 0.00 0.09 0.00 72 1024.8
20260902085541 62 106 2.0 4.0 0.00 0.33 0.00 71 1024.8
20260902085042 62 106 2.0 4.0 0.00 0.33 0.00 71 1024.9
20260902084553 62 106 2.0 4.0 0.00 0.33 0.00 71 1024.8
20260902084042 62 106 2.0 4.0 0.00 0.33 0.00 71 1024.8
20260902083543 63 106 3.0 4.0 0.00 0.33 0.00 71 1024.8
20260902083057 63 106 2.0 6.0 0.00 0.33 0.00 70 1024.9
20260902082542 63 106 3.0 6.0 0.00 0.33 0.00 70 1024.9
20260902082042 63 106 3.0 6.0 0.00 0.33 0.00 70 1025.0
20260902081551 63 106 3.0 4.0 0.00 0.33 0.00 70 1025.0
20260902081042 64 106 2.0 4.0 0.00 0.33 0.00 69 1024.9
20260902080541 64 106 2.0 4.0 0.00 0.33 0.00 69 1025.1
20260902080059 64 106 1.0 4.0 0.00 0.33 0.00 68 1025.1
20260902075542 64 106 3.0 4.0 0.00 0.33 0.00 69 1025.2
20260902075041 65 106 3.0 4.0 0.00 0.33 0.00 69 1025.2
20260902074555 65 106 1.0 3.0 0.00 0.33 0.00 67 1025.2
20260902074042 65 142 0.0 2.0 0.00 0.33 0.00 66 1025.3
20260902073542 65 142 0.0 1.0 0.00 0.33 0.00 66 1025.2
20260902073057 66 0 0.0 2.0 0.00 0.33 0.00 65 1025.3
20260902072541 66 0 0.0 2.0 0.00 0.33 0.00 66 1025.1
20260902072042 66 0 0.0 1.0 0.00 0.33 0.00 65 1025.1
20260902071553 66 0 0.0 1.0 0.00 0.33 0.00 64 1025.1
20260902071042 66 0 0.0 1.0 0.00 0.33 0.00 64 1025.0
20260902070542 66 0 0.0 3.0 0.00 0.33 0.00 63 1025.0
20260902070107 66 0 0.0 3.0 0.00 0.33 0.00 65 1025.0
20260902065542 66 142 1.0 2.0 0.00 0.33 0.00 64 1025.0
20260902065042 66 142 0.0 2.0 0.00 0.33 0.00 66 1024.9
20260902064549 66 0 0.0 3.0 0.00 0.33 0.00 66 1024.9
20260902064041 66 142 0.0 3.0 0.00 0.33 0.00 66 1024.9
20260902063541 66 0 1.0 3.0 0.00 0.33 0.00 66 1024.9
20260902063106 66 0 0.0 2.0 0.00 0.33 0.00 66 1024.9
20260902062542 66 142 0.0 2.0 0.00 0.33 0.00 66 1024.9
20260902062042 66 0 0.0 2.0 0.00 0.33 0.00 66 1024.9
20260902061618 66 142 0.0 3.0 0.00 0.33 0.00 66 1024.9
20260902061042 66 142 1.0 3.0 0.00 0.33 0.00 66 1024.8
20260902060542 66 142 1.0 3.0 0.00 0.33 0.00 66 1024.8
20260902060115 66 142 0.0 2.0 0.00 0.33 0.00 66 1024.8
20260902055542 66 0 0.0 2.0 0.00 0.33 0.33 66 1024.8
20260902055042 66 0 0.0 2.0 0.00 0.33 0.33 66 1024.8
20260902054559 66 0 0.0 2.0 0.00 0.33 0.33 66 1024.9
20260902054041 66 142 1.0 3.0 0.00 0.33 0.33 67 1024.9
20260902053541 66 142 0.0 3.0 0.00 0.33 0.33 68 1024.9
20260902053100 66 142 2.0 3.0 0.00 0.33 0.33 67 1024.9
20260902052545 66 142 1.0 3.0 0.00 0.33 0.33 67 1024.9
20260902052042 66 142 1.0 3.0 0.00 0.33 0.33 67 1024.9
20260902051556 66 142 1.0 4.0 0.00 0.33 0.33 68 1025.0
20260902051042 66 142 1.0 4.0 0.00 0.33 0.33 68 1025.0
20260902050542 66 80 1.0 3.0 0.00 0.33 0.33 69 1025.0
20260902050053 66 80 1.0 2.0 0.00 0.33 0.33 70 1024.9
20260902045541 67 0 0.0 2.0 0.00 0.33 0.33 70 1024.9
20260902045041 67 0 1.0 2.0 0.00 0.33 0.33 69 1024.9
20260902044556 67 0 0.0 2.0 0.00 0.33 0.33 67 1024.9
20260902044043 67 80 0.0 1.0 0.00 0.33 0.33 67 1024.9
20260902043542 67 0 0.0 2.0 0.00 0.33 0.33 68 1025.0
20260902043053 67 0 0.0 2.0 0.00 0.33 0.33 67 1025.1
20260902042544 67 0 0.0 2.0 0.00 0.33 0.33 66 1025.0
20260902042042 67 0 0.0 2.0 0.00 0.33 0.33 65 1025.0
20260902041555 67 80 0.0 2.0 0.00 0.33 0.33 65 1025.0
20260902041042 67 0 0.0 3.0 0.00 0.33 0.33 66 1024.9
20260902040542 67 80 1.0 3.0 0.00 0.33 0.33 66 1024.9
20260902040055 67 0 1.0 3.0 0.00 0.33 0.33 66 1024.9
20260902035542 67 80 1.0 3.0 0.00 0.33 0.33 67 1024.9
20260902035041 67 80 1.0 3.0 0.00 0.33 0.33 67 1024.9
20260902034554 67 80 0.0 3.0 0.00 0.33 0.33 67 1024.7
20260902034041 67 80 0.0 3.0 0.00 0.33 0.33 67 1024.7
20260902033541 67 80 0.0 5.0 0.00 0.33 0.33 67 1024.6
20260902033050 67 80 1.0 5.0 0.00 0.33 0.33 67 1024.5
20260902032544 67 80 1.0 3.0 0.00 0.33 0.33 66 1024.5
20260902032042 67 80 2.0 3.0 0.00 0.33 0.33 66 1024.4
20260902031552 67 80 1.0 5.0 0.00 0.33 0.33 65 1024.4
20260902031042 67 80 2.0 7.0 0.00 0.33 0.33 65 1024.3
20260902030542 68 80 3.0 7.0 0.00 0.33 0.33 64 1024.2
20260902030055 68 80 2.0 6.0 0.00 0.33 0.33 63 1024.0
20260902025543 68 94 1.0 5.0 0.00 0.33 0.33 63 1024.0
20260902025042 68 0 2.0 7.0 0.00 0.33 0.33 63 1023.9
20260902024552 68 62 3.0 8.0 0.00 0.33 0.33 62 1023.9
20260902024043 68 48 3.0 8.0 0.00 0.33 0.33 62 1023.8
20260902023541 68 74 4.0 8.0 0.00 0.33 0.33 63 1023.9
20260902023050 68 56 3.0 7.0 0.00 0.33 0.33 63 1023.9
20260902022541 68 61 2.0 5.0 0.00 0.33 0.33 64 1023.8
20260902022044 68 49 2.0 5.0 0.00 0.33 0.33 64 1023.7
20260902021548 68 52 3.0 5.0 0.00 0.33 0.33 63 1023.7
20260902021042 68 46 3.0 6.0 0.00 0.33 0.33 62 1023.7
20260902020542 68 45 3.0 6.0 0.00 0.33 0.33 61 1023.7
20260902020054 68 33 3.0 6.0 0.00 0.33 0.33 61 1023.7
20260902015546 69 26 2.0 5.0 0.00 0.33 0.33 63 1023.6
20260902015045 69 325 3.0 5.0 0.00 0.33 0.33 63 1023.6
20260902014556 69 348 3.0 6.0 0.00 0.33 0.33 63 1023.5
20260902014043 70 5 3.0 9.0 0.00 0.33 0.33 62 1023.4
20260902013541 70 360 3.0 9.0 0.00 0.33 0.33 62 1023.4
20260902013053 71 335 4.0 9.0 0.00 0.33 0.33 61 1023.4
20260902012541 71 318 5.0 10.0 0.00 0.33 0.33 60 1023.4
20260902012041 72 323 5.0 11.0 0.00 0.33 0.33 59 1023.4
20260902011549 73 333 6.0 11.0 0.00 0.33 0.33 57 1023.4
20260902011044 73 329 4.0 9.0 0.00 0.33 0.33 56 1023.4
20260902010541 74 352 1.0 4.0 0.00 0.33 0.33 54 1023.2
20260902010058 74 30 1.0 4.0 0.00 0.33 0.33 51 1023.1
20260902005542 74 30 1.0 4.0 0.00 0.34 0.33 51 1023.1
20260902005042 75 322 1.0 4.0 0.00 0.34 0.33 51 1023.1
20260902004555 75 322 1.0 5.0 0.00 0.34 0.33 51 1023.1
20260902004041 75 322 2.0 6.0 0.00 0.34 0.33 50 1023.2
20260902003541 75 78 2.0 8.0 0.00 0.34 0.33 51 1023.2
20260902003054 76 360 3.0 8.0 0.00 0.34 0.33 51 1023.2
20260902002542 76 360 3.0 8.0 0.00 0.34 0.33 51 1023.3
20260902002041 76 321 3.0 5.0 0.00 0.34 0.33 51 1023.3
20260902001551 75 69 2.0 5.0 0.00 0.34 0.33 51 1023.3
20260902001042 75 352 1.0 7.0 0.00 0.34 0.33 52 1023.4
20260902000542 75 352 3.0 7.0 0.00 0.34 0.33 51 1023.4
20260902000055 75 37 3.0 8.0 0.00 0.34 0.33 53 1023.4
20260901235544 74 48 3.0 10.0 0.00 0.34 0.33 55 1023.4
20260901235041 74 44 6.0 10.0 0.00 0.34 0.33 55 1023.5
20260901234557 74 346 6.0 10.0 0.00 0.34 0.33 54 1023.5
20260901234046 75 360 4.0 9.0 0.00 0.34 0.33 53 1023.6
20260901233543 76 360 5.0 11.0 0.00 0.34 0.33 52 1023.5
20260901233106 77 360 4.0 11.0 0.00 0.34 0.33 51 1023.5
20260901232541 78 321 5.0 10.0 0.00 0.34 0.33 49 1023.5
20260901232042 80 338 4.0 12.0 0.00 0.34 0.33 46 1023.4
20260901231552 82 5 6.0 12.0 0.00 0.34 0.33 43 1023.4
20260901231042 84 327 5.0 11.0 0.00 0.34 0.33 43 1023.4
20260901230541 86 352 6.0 11.0 0.00 0.34 0.33 40 1023.5
20260901230100 85 277 3.0 9.0 0.00 0.34 0.33 33 1023.3
20260901225543 85 305 2.0 7.0 0.00 0.34 0.33 34 1023.3
20260901225042 84 205 1.0 7.0 0.00 0.34 0.33 32 1023.4
20260901224559 84 225 2.0 9.0 0.00 0.34 0.33 33 1023.5
20260901224041 83 324 5.0 10.0 0.00 0.34 0.33 34 1023.6
20260901223542 83 266 5.0 12.0 0.00 0.34 0.33 35 1023.6
20260901223108 82 306 5.0 12.0 0.00 0.34 0.33 37 1023.7
20260901222541 82 158 1.0 8.0 0.00 0.34 0.33 36 1023.7
20260901222043 82 257 3.0 13.0 0.00 0.34 0.33 36 1023.7
20260901221555 83 304 4.0 13.0 0.00 0.34 0.33 36 1023.9
20260901221042 83 232 5.0 13.0 0.00 0.34 0.33 34 1023.9
20260901220541 84 340 4.0 9.0 0.00 0.34 0.33 35 1023.9
20260901220054 84 286 2.0 10.0 0.00 0.34 0.33 36 1024.0
20260901215542 85 259 4.0 10.0 0.00 0.34 0.33 34 1024.0
20260901215042 85 254 2.0 9.0 0.00 0.34 0.33 34 1024.0
20260901214556 85 205 4.0 12.0 0.00 0.34 0.33 34 1024.0
20260901214042 85 240 4.0 12.0 0.00 0.34 0.33 35 1024.0
20260901213542 84 215 4.0 11.0 0.00 0.34 0.33 35 1024.2
20260901213058 84 282 6.0 11.0 0.00 0.34 0.33 35 1024.2
20260901212542 84 222 5.0 11.0 0.00 0.34 0.33 35 1024.2
20260901212042 83 225 5.0 11.0 0.00 0.34 0.33 35 1024.2
20260901211554 83 230 3.0 10.0 0.00 0.34 0.33 38 1024.3
20260901211041 82 254 5.0 14.0 0.00 0.34 0.33 38 1024.3
20260901210541 82 167 6.0 14.0 0.00 0.34 0.33 38 1024.4
20260901210106 82 302 5.0 12.0 0.00 0.34 0.33 38 1024.5
20260901205543 82 221 4.0 12.0 0.00 0.34 0.33 39 1024.7
20260901205042 82 299 5.0 12.0 0.00 0.34 0.33 39 1024.6
20260901204556 83 244 4.0 12.0 0.00 0.34 0.33 38 1024.6
20260901204042 83 253 6.0 12.0 0.00 0.34 0.33 37 1024.7
20260901203542 84 249 7.0 10.0 0.00 0.34 0.33 37 1024.7
20260901203108 84 216 4.0 10.0 0.00 0.34 0.33 38 1024.7
20260901202544 84 235 4.0 11.0 0.00 0.34 0.33 40 1024.8
20260901202042 84 167 3.0 13.0 0.00 0.34 0.33 40 1024.8
20260901201600 84 246 4.0 13.0 0.00 0.34 0.33 39 1024.9
20260901201042 84 196 4.0 10.0 0.00 0.34 0.33 38 1024.9
20260901200542 84 209 5.0 10.0 0.00 0.34 0.33 38 1024.9
20260901200057 83 222 4.0 11.0 0.00 0.34 0.33 38 1025.1
20260901195545 83 247 3.0 11.0 0.00 0.34 0.33 38 1025.1
20260901195045 83 194 4.0 10.0 0.00 0.34 0.33 38 1025.1
20260901194606 82 235 3.0 10.0 0.00 0.34 0.33 38 1025.1
20260901194042 83 241 5.0 10.0 0.00 0.34 0.33 37 1025.2
20260901193542 83 208 1.0 9.0 0.00 0.34 0.33 37 1025.3
20260901193059 83 241 3.0 9.0 0.00 0.34 0.33 37 1025.3
20260901192544 83 229 3.0 11.0 0.00 0.34 0.33 36 1025.3
20260901192042 83 245 4.0 11.0 0.00 0.34 0.33 38 1025.5
20260901191607 82 124 4.0 11.0 0.00 0.34 0.33 40 1025.5
20260901191046 82 254 2.0 11.0 0.00 0.34 0.33 39 1025.6
20260901190542 82 208 3.0 11.0 0.00 0.34 0.33 39 1025.6
20260901190109 81 232 3.0 8.0 0.00 0.34 0.33 42 1025.6
20260901185546 80 190 1.0 7.0 0.00 0.34 0.33 41 1025.7
20260901185049 80 219 4.0 7.0 0.00 0.34 0.33 42 1025.8
20260901184549 79 78 1.0 8.0 0.00 0.34 0.33 43 1025.9
20260901184043 79 0 2.0 8.0 0.00 0.34 0.33 42 1025.9
20260901183542 80 261 2.0 6.0 0.00 0.34 0.33 43 1025.9
20260901183056 80 306 3.0 6.0 0.00 0.34 0.33 45 1026.0
20260901182542 79 277 1.0 4.0 0.00 0.34 0.33 45 1025.9
20260901182042 78 113 1.0 5.0 0.00 0.34 0.33 46 1026.0
20260901181554 77 132 1.0 5.0 0.00 0.34 0.33 47 1025.9
20260901181041 76 273 1.0 5.0 0.00 0.34 0.33 49 1026.0
20260901180541 74 352 0.0 5.0 0.00 0.34 0.33 54 1026.1
20260901180049 74 360 3.0 6.0 0.00 0.34 0.33 57 1026.3
20260901175544 74 302 2.0 7.0 0.00 0.34 0.33 55 1026.3
20260901175042 74 298 2.0 7.0 0.00 0.34 0.33 58 1026.5
20260901174621 73 0 1.0 7.0 0.00 0.34 0.33 54 1026.5
20260901174042 73 238 2.0 7.0 0.00 0.34 0.33 56 1026.5
20260901173542 72 256 1.0 7.0 0.00 0.34 0.33 59 1026.5
20260901173102 70 326 0.0 5.0 0.00 0.34 0.33 65 1026.5
20260901172544 69 39 1.0 5.0 0.00 0.34 0.33 66 1026.5
20260901172043 68 360 3.0 5.0 0.00 0.34 0.33 68 1026.6
20260901171605 67 350 2.0 5.0 0.00 0.34 0.33 69 1026.7
20260901171042 66 323 2.0 5.0 0.00 0.34 0.33 75 1026.6
20260901170542 65 360 2.0 5.0 0.00 0.34 0.33 73 1026.6
20260901170050 65 9 3.0 6.0 0.00 0.34 0.33 74 1026.6
20260901165542 65 28 3.0 8.0 0.00 0.34 0.33 74 1026.5
20260901165045 65 350 4.0 10.0 0.00 0.34 0.33 73 1026.4
20260901164558 65 336 5.0 10.0 0.00 0.34 0.33 75 1026.4
20260901164042 65 331 4.0 9.0 0.00 0.34 0.33 77 1026.3
20260901163542 64 22 5.0 10.0 0.00 0.34 0.33 79 1026.4
20260901163104 64 319 4.0 11.0 0.00 0.34 0.33 81 1026.3
20260901162541 63 348 5.0 11.0 0.00 0.34 0.33 82 1026.2
20260901162041 63 29 4.0 9.0 0.00 0.34 0.33 84 1026.3
20260901161558 62 340 4.0 9.0 0.00 0.34 0.33 84 1026.3
20260901161043 61 28 4.0 9.0 0.00 0.34 0.33 86 1026.3
20260901160542 61 352 3.0 9.0 0.00 0.34 0.33 87 1026.2
20260901155542 60 352 5.0 9.0 0.00 0.34 0.33 89 1026.2
20260901155043 60 27 3.0 11.0 0.00 0.34 0.33 92 1026.2
20260901154557 59 323 5.0 11.0 0.00 0.34 0.33 92 1026.3
20260901154043 59 34 5.0 10.0 0.00 0.34 0.33 92 1026.1
20260901153542 58 348 5.0 10.0 0.00 0.34 0.33 92 1026.0
20260901153052 58 331 5.0 10.0 0.00 0.34 0.33 92 1026.0
20260901152541 58 27 4.0 10.0 0.00 0.34 0.33 92 1026.0
20260901152042 58 16 5.0 9.0 0.00 0.34 0.33 93 1026.0
20260901151552 58 9 4.0 8.0 0.00 0.34 0.33 93 1026.0
20260901151045 57 351 3.0 8.0 0.00 0.34 0.33 93 1026.0
20260901150542 57 336 4.0 8.0 0.00 0.34 0.33 93 1026.0
20260901150051 57 319 3.0 9.0 0.00 0.34 0.33 93 1026.0
20260901145543 57 335 4.0 10.0 0.00 0.34 0.33 93 1025.8
20260901145042 57 333 5.0 10.0 0.00 0.34 0.33 93 1025.8
20260901144552 57 321 5.0 11.0 0.00 0.34 0.33 93 1025.9
20260901144042 57 341 4.0 11.0 0.00 0.34 0.33 93 1025.9
20260901143544 57 325 6.0 11.0 0.00 0.34 0.33 93 1025.9
20260901143102 57 293 6.0 10.0 0.00 0.34 0.33 93 1025.9
20260901142543 57 335 6.0 10.0 0.00 0.34 0.33 93 1025.9
20260901142042 57 334 6.0 11.0 0.00 0.34 0.33 93 1025.8
20260901141608 57 325 6.0 11.0 0.00 0.34 0.33 93 1025.7
20260901141040 57 305 6.0 11.0 0.00 0.34 0.33 93 1025.8
20260901140542 56 325 5.0 11.0 0.00 0.34 0.33 93 1025.7
20260901140056 57 352 5.0 10.0 0.00 0.34 0.33 93 1025.5
20260901135543 57 342 5.0 11.0 0.00 0.34 0.33 93 1025.6
20260901135043 56 340 7.0 11.0 0.00 0.34 0.33 93 1025.5
20260901134549 56 315 6.0 9.0 0.00 0.34 0.33 93 1025.7
20260901134042 56 333 5.0 9.0 0.00 0.34 0.33 93 1025.5
20260901133542 56 10 5.0 9.0 0.00 0.34 0.33 93 1025.5
20260901133107 57 326 5.0 13.0 0.00 0.34 0.33 93 1025.5
20260901132543 56 49 6.0 15.0 0.00 0.34 0.33 93 1025.2
20260901132046 57 27 8.0 17.0 0.00 0.34 0.33 93 1024.9
20260901131605 57 44 10.0 17.0 0.00 0.34 0.33 92 1024.8
20260901131043 57 30 9.0 15.0 0.00 0.34 0.33 93 1024.9
20260901130545 57 72 7.0 13.0 0.00 0.34 0.33 92 1025.0
20260901130051 57 57 7.0 13.0 0.00 0.34 0.33 92 1025.1
20260901125543 57 35 8.0 13.0 0.00 0.34 0.33 92 1024.9
20260901125045 57 26 5.0 9.0 0.00 0.34 0.33 92 1025.3
20260901124556 57 13 4.0 7.0 0.00 0.34 0.33 91 1025.5
20260901124045 57 17 2.0 5.0 0.00 0.34 0.33 91 1025.5
20260901123543 57 48 2.0 5.0 0.01 0.34 0.33 92 1025.4
20260901123059 57 15 3.0 6.0 0.02 0.34 0.33 92 1025.2
20260901122543 57 347 2.0 8.0 0.03 0.34 0.33 91 1025.2
20260901122044 57 24 4.0 8.0 0.03 0.34 0.33 91 1025.2
20260901121600 57 59 3.0 6.0 0.03 0.34 0.33 92 1025.2
20260901121042 57 53 2.0 8.0 0.03 0.34 0.33 92 1025.3
20260901120542 57 53 4.0 8.0 0.03 0.34 0.33 92 1025.2
20260901120117 57 38 4.0 6.0 0.03 0.34 0.33 92 1025.3
20260901115545 57 360 3.0 9.0 0.03 0.34 0.33 92 1025.2
20260901115042 57 320 4.0 9.0 0.03 0.34 0.33 92 1025.1
20260901114552 57 352 5.0 9.0 0.03 0.34 0.33 92 1025.2
20260901114042 57 360 4.0 7.0 0.03 0.34 0.33 92 1025.4
20260901113542 57 335 2.0 4.0 0.02 0.33 0.32 92 1025.5
20260901113057 57 62 1.0 3.0 0.01 0.32 0.31 91 1025.9
20260901112546 57 62 1.0 4.0 0.00 0.31 0.30 91 1025.8
20260901112042 57 62 2.0 4.0 0.00 0.31 0.30 91 1025.7
20260901111600 57 62 3.0 4.0 0.00 0.31 0.30 91 1025.7
20260901111042 57 62 2.0 4.0 0.00 0.31 0.30 91 1025.6
20260901110541 57 63 1.0 3.0 0.00 0.31 0.30 92 1025.7
20260901110110 57 63 0.0 5.0 0.00 0.31 0.30 91 1025.9
20260901105542 57 63 1.0 6.0 0.00 0.31 0.30 91 1025.7
20260901105042 57 63 3.0 7.0 0.00 0.31 0.30 91 1025.7
20260901104601 57 75 3.0 8.0 0.00 0.31 0.30 91 1025.6
20260901104043 57 85 4.0 8.0 0.00 0.31 0.30 91 1025.5
20260901103542 57 80 4.0 8.0 0.01 0.31 0.30 91 1025.5
20260901103051 57 96 4.0 10.0 0.01 0.31 0.30 91 1025.5
20260901102542 57 66 5.0 10.0 0.01 0.31 0.30 91 1025.5
20260901102042 57 74 4.0 8.0 0.02 0.31 0.30 91 1025.3
20260901101607 57 71 3.0 8.0 0.04 0.31 0.30 92 1025.5
20260901101046 57 67 3.0 8.0 0.05 0.31 0.30 92 1025.7
20260901100546 57 94 3.0 7.0 0.05 0.31 0.30 92 1025.7
20260901100054 57 77 3.0 8.0 0.06 0.31 0.30 91 1025.8
20260901095542 57 88 4.0 8.0 0.06 0.31 0.30 91 1025.9
20260901095043 57 85 4.0 8.0 0.10 0.31 0.30 91 1025.9
20260901094605 57 67 3.0 7.0 0.14 0.31 0.30 91 1026.0
20260901094043 57 65 2.0 5.0 0.20 0.31 0.30 91 1026.1